Date,TemperatureHighF,TemperatureAvgF,TemperatureLowF,DewpointHighF,DewpointAvgF,DewpointLowF,HumidityHigh,HumidityAvg,HumidityLow,PressureMaxIn,PressureMinIn,WindSpeedMaxMPH,WindSpeedAvgMPH,GustSpeedMaxMPH,PrecipitationSumIn
2013-9-1,86.3,74.7,70.2,77.4,72.4,69.4,100,93,74,29.91,29.82,5,0,5,0.00
2013-9-2,82.3,73.7,70.1,75.2,72.1,69.5,100,95,74,29.96,29.85,3,0,3,0.04
2013-9-3,90.8,76.9,69.0,75.9,71.3,68.2,99,85,52,29.95,29.85,6,0,6,0.00
2013-9-4,91.2,76.3,66.7,73.8,68.0,63.9,99,79,45,30.07,29.94,5,0,5,0.00
2013-9-5,93.3,76.3,66.9,73.7,68.6,65.4,99,80,45,30.10,30.02,4,0,4,0.00
2013-9-6,89.6,74.3,65.9,71.2,67.6,65.0,100,82,52,30.12,30.02,11,0,12,0.00
2013-9-7,89.8,74.1,64.4,70.7,66.4,62.6,99,80,46,30.10,29.97,5,0,5,0.00
2013-9-8,90.7,75.9,64.5,73.0,68.3,63.7,99,80,46,30.00,29.91,6,0,6,0.00
2013-9-9,91.2,77.1,67.7,73.5,69.4,66.7,100,80,49,30.08,29.96,9,0,9,0.00
2013-9-10,90.8,77.2,67.2,74.0,70.1,65.9,99,80,52,30.19,30.08,8,0,8,0.00
2013-9-11,92.5,76.9,67.1,74.3,68.0,63.2,99,78,41,30.20,30.06,7,0,7,0.00
2013-9-12,91.8,76.9,66.0,72.2,68.7,64.9,100,78,48,30.08,29.88,6,0,6,0.00
2013-9-13,88.2,74.8,61.2,69.6,64.5,55.4,93,72,43,29.90,29.78,11,0,11,0.00
2013-9-14,83.7,66.5,54.1,61.6,57.0,52.4,99,74,44,30.06,29.87,13,1,13,0.00
2013-9-15,84.2,70.9,62.9,71.3,65.3,58.7,96,83,61,30.15,30.05,8,0,8,0.00
2013-9-16,81.0,70.8,65.7,67.2,62.2,58.3,97,76,46,30.10,30.03,3,0,3,0.00
2013-9-17,78.5,70.0,62.8,65.1,62.8,60.6,95,78,60,30.21,30.07,16,1,16,0.00
2013-9-18,77.2,68.8,64.1,65.5,61.4,58.1,93,78,61,30.22,30.11,9,0,9,0.00
2013-9-19,86.8,70.9,60.6,66.6,62.7,58.6,98,78,46,30.17,30.05,5,0,5,0.00
2013-9-20,89.7,73.5,61.4,68.2,64.6,60.4,99,76,45,30.06,29.88,6,0,6,0.00
2013-9-21,74.2,67.3,63.9,69.8,65.4,62.6,98,94,76,29.91,29.69,7,0,7,0.95
2013-9-22,84.0,68.5,59.4,66.5,62.4,57.9,99,83,47,29.86,29.75,6,0,6,0.00
2013-9-23,80.9,67.5,57.0,64.3,60.4,56.5,100,80,51,30.00,29.85,12,1,12,0.00
2013-9-24,70.7,66.6,64.1,64.4,61.8,58.5,96,85,76,30.01,29.87,11,1,11,0.00
2013-9-25,65.4,64.0,62.3,64.4,62.2,61.0,99,94,89,29.89,29.82,11,0,11,0.54
2013-9-26,80.7,68.2,60.0,67.5,63.6,59.2,99,86,60,29.99,29.87,3,0,5,0.00
2013-9-27,79.3,68.1,58.4,64.8,60.5,56.0,96,79,51,30.12,29.99,9,0,9,0.00
2013-9-28,76.5,64.1,57.5,60.1,57.4,55.0,98,81,53,30.21,30.10,11,0,11,0.00
2013-9-29,74.3,62.2,53.8,60.2,55.9,52.3,96,82,55,30.15,30.02,7,0,7,0.00
2013-9-30,78.5,64.0,55.9,61.1,58.1,55.0,100,83,51,30.09,29.98,7,0,7,0.00